Location: Caltech
(34.1382°N, 118.1253°W)
Time: 13:29:56
(UTC-07:00)

Cosmos 2084 - Visible Passes

Search period start: 28 July 2014 00:00
Search period end: 07 August 2014 00:00
Orbit: 575 x 626 km, 62.8° (Epoch: 28 July)

Date Brightness Start Highest point End Pass type
(mag) Time Alt. Az. Time Alt. Az. Time Alt. Az.
28 Jul 6.2 00:19:54 10° NNW 00:21:07 18° NNW 00:21:07 18° NNW visible
28 Jul 6.1 22:53:14 10° NNE 22:55:03 13° NE 22:55:03 13° NE visible
29 Jul 6.4 00:31:08 10° NW 00:31:45 14° NW 00:31:45 14° NW visible
29 Jul 5.7 23:03:26 10° N 23:05:44 20° NNE 23:05:44 20° NNE visible
30 Jul 5.5 23:14:11 10° NNW 23:16:28 26° N 23:16:28 26° N visible
31 Jul 5.6 23:25:16 10° NNW 23:27:14 25° NNW 23:27:14 25° NNW visible
01 Aug 5.5 21:58:01 10° N 22:01:04 17° NE 22:01:21 17° NE visible
01 Aug 6.0 23:36:39 10° NW 23:38:04 19° NW 23:38:04 19° NW visible
02 Aug 4.9 22:08:33 10° N 22:12:13 30° NE 22:12:13 30° NE visible
02 Aug 6.4 23:48:28 10° WNW 23:48:56 12° WNW 23:48:56 12° WNW visible
03 Aug 4.2 22:19:28 10° NNW 22:23:08 49° NNE 22:23:08 49° NNE visible
04 Aug 5.8 20:52:52 10° NNE 20:55:02 13° NE 20:57:11 10° ENE visible
04 Aug 4.4 22:30:41 10° NW 22:34:06 49° NW 22:34:06 49° NW visible
05 Aug 5.1 21:03:00 10° N 21:06:36 23° NE 21:08:24 18° E visible
05 Aug 5.2 22:42:14 10° NW 22:45:08 30° W 22:45:08 30° W visible
06 Aug 4.2 21:13:44 10° NNW 21:18:02 40° NE 21:19:30 31° E visible
06 Aug 6.0 22:54:22 10° WNW 22:56:14 16° W 22:56:14 16° W visible
